Location: Ferchesar
(52.6477°N, 12.4298°E)
Time: 21:09:52
(UTC+02:00)

A-11 Canister half - Pass Details

Date: 06 March 2021
Orbit: 1525 x 1683 km, 47.3° (Epoch: 11 April)

Event Time Altitude Azimuth Distance (km) Brightness Sun altitude
Exits shadow 04:54:33 19° 230° (SW) 3,132 10.1 -17.5°
Maximum altitude 05:01:33 55° 161° (SSE) 1,834 9.4 -16.5°
Drops below altitude 10° 05:10:35 10° 87° (E) 3,715 12.4 -15.2°
Sets 05:13:40 0° 84° (E) 4,688 13.5 -14.7°
